User: anonymous
Location: Caltech
(34.1382°N, 118.1253°W)
Time: 04:31:16
(UTC-07:00)
Language:

Lacrosse 5 - Orbit

View from above orbital plane
View from above orbital plane
View from above satellite
View from above satellite

Ground track
Ground track

The orbit data is extracted from the following two-line orbital elements,

1 28646U 05016A   14253.14716788 0.00000000  00000-0  00000-0 0    08
2 28646  57.0090 300.4555 0010602  81.8787 278.1212 14.53508316    08
Epoch (UTC): 10 September 2014 03:31:55
Eccentricity: 0.0010602
inclination: 57.0090°
perigee height: 706 km
apogee height: 722 km
right ascension of ascending node: 300.4555°
argument of perigee: 81.8787°
revolutions per day: 14.53508316
mean anomaly at epoch: 278.1212°
orbit number at epoch: 0

The dashed part of the orbit path shows where the satellite is in the earth's shadow,  

DLR